Location: Limoges
(45.8500°N, 1.2500°E)
Time: 10:12:52
(UTC+02:00)

ISS - Visible Passes

Search period start: 15 May 2021 00:00
Search period end: 25 May 2021 00:00
Orbit: 417 x 422 km, 51.6° (Epoch: 15 May)

Date Brightness Start Highest point End Pass type
(mag) Time Alt. Az. Time Alt. Az. Time Alt. Az.
15 May -3.0 00:25:43 10° W 00:29:01 51° NNW 00:32:20 10° ENE visible
15 May -1.7 02:03:18 10° WNW 02:06:18 29° N 02:09:19 10° ENE visible
15 May -2.7 03:40:20 10° WNW 03:43:37 47° NNE 03:46:54 10° E visible
15 May -3.2 05:17:14 10° WNW 05:20:23 37° SW 05:23:32 10° SSE visible
15 May -2.4 22:02:28 10° S 22:05:01 20° SE 22:07:34 10° E visible
15 May -3.6 23:38:10 10° WSW 23:41:31 71° NNW 23:44:54 10° ENE visible
16 May -1.8 01:15:40 10° WNW 01:18:42 30° N 01:21:45 10° ENE visible
16 May -2.2 02:52:53 10° NW 02:56:04 37° NNE 02:59:16 10° E visible
16 May -3.8 04:29:41 10° WNW 04:33:01 58° SSW 04:36:21 10° SE visible
16 May -3.9 22:50:43 10° SW 22:54:04 78° SSE 22:57:27 10° ENE visible
17 May -2.0 00:28:00 10° WNW 00:31:07 33° N 00:34:14 10° NE visible
17 May -1.9 02:05:24 10° WNW 02:08:30 32° N 02:11:36 10° ENE visible
17 May -3.9 03:42:12 10° WNW 03:45:36 89° S 03:48:58 10° ESE visible
17 May -2.1 05:19:57 10° W 05:21:59 15° SW 05:24:00 10° S visible
17 May -3.6 22:03:23 10° SW 22:06:39 50° SE 22:09:56 10° ENE visible
17 May -2.3 23:40:21 10° W 23:43:33 40° NNW 23:46:46 10° NE visible
18 May -1.8 01:17:52 10° WNW 01:20:54 30° N 01:22:53 17° ENE visible
18 May -1.5 02:54:45 10° WNW 02:55:46 18° NW 02:55:46 18° NW visible
18 May -2.8 22:52:43 10° W 22:56:00 51° NNW 22:59:18 10° ENE visible
19 May -1.7 00:30:17 10° WNW 00:33:17 29° N 00:36:18 10° ENE visible
19 May -2.0 02:07:19 10° WNW 02:09:22 31° NW 02:09:22 31° NW visible
19 May -3.4 22:05:08 10° WSW 22:08:29 71° NNW 22:11:52 10° ENE visible
19 May -1.8 23:42:38 10° WNW 23:45:40 30° N 23:48:43 10° ENE visible
20 May -2.3 01:19:51 10° NW 01:23:02 37° NNE 01:23:11 37° NNE visible
20 May -2.0 22:54:58 10° WNW 22:58:04 33° N 23:01:11 10° NE visible
21 May -2.0 00:32:21 10° WNW 00:35:27 32° N 00:37:05 21° ENE visible
21 May -1.3 02:09:09 10° WNW 02:10:01 17° WNW 02:10:01 17° WNW visible
21 May -2.3 22:07:17 10° W 22:10:28 40° NNW 22:13:41 10° NE visible
21 May -1.8 23:44:48 10° WNW 23:47:49 30° N 23:50:51 10° ENE visible
22 May -2.4 01:21:41 10° WNW 01:23:58 38° NW 01:23:58 38° NW visible
22 May -1.8 22:57:11 10° WNW 23:00:12 29° N 23:03:12 10° ENE visible
23 May -2.9 00:34:13 10° WNW 00:37:30 47° NNE 00:37:56 44° NE visible
23 May -1.8 22:09:31 10° WNW 22:12:34 30° N 22:15:36 10° ENE visible
23 May -2.4 23:46:44 10° NW 23:49:55 37° NNE 23:51:57 19° ENE visible
24 May -1.7 01:23:32 10° WNW 01:24:53 22° WNW 01:24:53 22° WNW visible
24 May -2.1 22:59:14 10° WNW 23:02:19 32° N 23:05:24 10° ENE visible
